Weather History for West Palm Beach, FL

Change the Weather History Date:

Saturday, March 8, 2014

  Actual Average Record
Temperature  
Mean Temperature 63 °F 70 °F  
Max Temperature 74 °F 78 °F 90 °F (1961)
Min Temperature 51 °F 61 °F 40 °F (1914)
Degree Days  
Heating Degree Days 2 1  
Month to date heating degree days 2 8  
Since 1 July heating degree days 117 213  
Cooling Degree Days 0 6  
Month to date cooling degree days 40 46  
Year to date cooling degree days 386 281  
Growing Degree Days 12 (Base 50)    
Moisture  
Dew Point 52 °F    
Average Humidity 70    
Maximum Humidity 90    
Minimum Humidity 49    
Precipitation  
Precipitation 0.00 in 0.15 in 3.38 in (1970)
Month to date precipitation 0.26 1.06  
Year to date precipitation 11.74 7.01  
Snow  
Snow 0.00 in - - ()
Month to date snowfall 0.0  
Since 1 July snowfall 0.0  
Snow Depth 0.00 in    
Sea Level Pressure  
Sea Level Pressure 30.08 in    
Wind  
Wind Speed 7 mph (NNW)    
Max Wind Speed 16 mph    
Max Gust Speed 21 mph    
Visibility 10 miles    
Events      
T = Trace of Precipitation, MM = Missing Value Source: NWS Daily Summary

Daily Weather History Graph

Daily Weather History Graph

Search for Another Location

Airport:

Trip Planner

Search our weather history database for the weather conditions in past years. The results will help you decide how hot, cold, wet, or windy it might be!

Date:

Astronomy

Mar. 08, 2014 Rise Set
Actual Time 6:37 AM EST 6:25 PM EST
Civil Twilight 6:13 AM EST 6:48 PM EST
Nautical Twilight 5:47 AM EST 7:15 PM EST
Astronomical Twilight 5:20 AM EST 7:42 PM EST
Moon 11:51 AM EST (3/8) 12:48 AM EST (3/8)
Length of Visible Light 12h 34m
Length of Day
11h 48m
First Quarter, 51% of the Moon is Illuminated
Mar 8
First Quarter
Mar 16
Full
Mar 23
Last Quarter
Mar 30
New
Apr 7
First Quarter

Hourly Weather History & Observations

Time (EST) Temp. Dew Point Humidity Pressure Visibility Wind Dir Wind Speed Gust Speed Precip Events Conditions
12:40 AM 57.0 °F 48.9 °F 74% 30.03 in 10.0 mi NNW 11.5 mph - N/A   Mostly Cloudy
12:53 AM 57.0 °F 48.9 °F 74% 30.03 in 10.0 mi NNW 10.4 mph - N/A   Mostly Cloudy
1:53 AM 57.0 °F 48.9 °F 74% 30.02 in 10.0 mi North 10.4 mph - N/A   Mostly Cloudy
2:53 AM 55.9 °F 48.0 °F 75% 30.03 in 10.0 mi NW 11.5 mph - N/A   Mostly Cloudy
3:53 AM 55.9 °F 46.9 °F 72% 30.04 in 10.0 mi North 10.4 mph - N/A   Mostly Cloudy
4:53 AM 55.0 °F 46.9 °F 74% 30.04 in 10.0 mi NW 8.1 mph - N/A   Overcast
5:53 AM 54.0 °F 46.0 °F 75% 30.06 in 10.0 mi North 8.1 mph - N/A   Mostly Cloudy
6:53 AM 52.0 °F 45.0 °F 77% 30.08 in 10.0 mi West 4.6 mph - N/A   Mostly Cloudy
7:53 AM 54.0 °F 46.0 °F 75% 30.11 in 10.0 mi SW 8.1 mph - N/A   Mostly Cloudy
8:53 AM 55.9 °F 46.9 °F 72% 30.12 in 10.0 mi West 4.6 mph - N/A   Mostly Cloudy
9:43 AM 60.1 °F 48.9 °F 67% 30.14 in 10.0 mi WNW 8.1 mph - N/A   Scattered Clouds
9:53 AM 60.1 °F 48.9 °F 67% 30.14 in 10.0 mi West 4.6 mph - N/A   Scattered Clouds
10:53 AM 64.9 °F 51.1 °F 61% 30.13 in 10.0 mi Variable 3.5 mph - N/A   Partly Cloudy
11:53 AM 69.1 °F 53.1 °F 57% 30.12 in 10.0 mi Calm Calm - N/A   Partly Cloudy
12:53 PM 72.0 °F 52.0 °F 49% 30.09 in 10.0 mi NNE 6.9 mph - N/A   Partly Cloudy
1:53 PM 73.9 °F 53.1 °F 48% 30.07 in 10.0 mi Variable 3.5 mph - N/A   Partly Cloudy
2:53 PM 73.0 °F 54.0 °F 51% 30.06 in 10.0 mi ENE 11.5 mph - N/A   Scattered Clouds
3:53 PM 72.0 °F 57.0 °F 59% 30.05 in 10.0 mi ENE 13.8 mph - N/A   Scattered Clouds
4:53 PM 70.0 °F 57.9 °F 65% 30.06 in 10.0 mi NNE 11.5 mph - N/A   Scattered Clouds
5:53 PM 68.0 °F 59.0 °F 73% 30.08 in 10.0 mi NE 10.4 mph - N/A   Scattered Clouds
6:53 PM 66.9 °F 59.0 °F 76% 30.10 in 10.0 mi NNE 6.9 mph - N/A   Partly Cloudy
7:53 PM 66.0 °F 59.0 °F 78% 30.12 in 10.0 mi North 5.8 mph - N/A   Partly Cloudy
8:53 PM 66.0 °F 59.0 °F 78% 30.12 in 10.0 mi North 5.8 mph - N/A   Partly Cloudy
9:53 PM 64.0 °F 59.0 °F 84% 30.14 in 10.0 mi NNW 5.8 mph - N/A   Partly Cloudy
10:53 PM 62.1 °F 59.0 °F 90% 30.14 in 10.0 mi NNW 4.6 mph - N/A   Partly Cloudy
11:53 PM 61.0 °F 59.0 °F 93% 30.13 in 10.0 mi NW 4.6 mph - N/A   Partly Cloudy